Montgomery, AL

12:30 PM CST on January 24, 2017 (GMT -0600)
Montgomery Regional

Weather History for KMGM - March, 2014

Change the Weather History Date:

Monday, March 3, 2014

  Actual Average Record
Temperature  
Mean Temperature 49 °F 54 °F  
Max Temperature 62 °F 66 °F 84 °F (1951)
Min Temperature 35 °F 43 °F 19 °F (1980)
Degree Days  
Heating Degree Days 16 11  
Month to date heating degree days 22 33  
Since 1 July heating degree days 1980 1905  
Cooling Degree Days 0 0  
Month to date cooling degree days 0 0  
Year to date cooling degree days 7 6  
Moisture  
Dew Point 44 °F    
Average Humidity 84    
Maximum Humidity 97    
Minimum Humidity 70    
Precipitation  
Precipitation 0.15 in 0.20 in 4.95 in (1917)
Month to date precipitation 0.15 0.58  
Year to date precipitation 7.82 10.51  
Snow  
Snow 0.00 in 0.00 in - ()
Month to date snowfall 0.0 0.0  
Since 1 July snowfall 0.5 0.1  
Snow Depth 0.00 in    
Sea Level Pressure  
Sea Level Pressure 30.03 in    
Wind  
Wind Speed 11 mph (West)    
Max Wind Speed 24 mph    
Max Gust Speed 29 mph    
Visibility 8 miles    
Events Rain    
T = Trace of Precipitation, MM = Missing Value Source: NWS Daily Summary

Daily Weather History Graph

Daily Weather History Graph

Search for Another Location

Airport or City:

Trip Planner

Search our weather history database for the weather conditions in past years. The results will help you decide how hot, cold, wet, or windy it might be!

Date:

Astronomy

Mar. 03, 2014 Rise Set
Actual Time 6:10 AM CST 5:44 PM CST
Civil Twilight 5:46 AM CST 6:09 PM CST
Nautical Twilight 5:17 AM CST 6:37 PM CST
Astronomical Twilight 4:49 AM CST 7:06 PM CST
Moon 7:29 AM CST (3/3) 8:34 PM CST (3/3)
Length of Visible Light 12h 23m
Length of Day
11h 34m
Waxing Crescent, 8% of the Moon is Illuminated
Mar 3
Waxing Crescent
Mar 8
First Quarter
Mar 16
Full
Mar 23
Last Quarter
Mar 30
New

Hourly Weather History & Observations

Time (CST) Temp. Windchill Dew Point Humidity Pressure Visibility Wind Dir Wind Speed Gust Speed Precip Events Conditions
12:53 AM 57.0 °F - 51.1 °F 81% 29.97 in 10.0 mi Calm Calm - N/A   Partly Cloudy
1:53 AM 57.9 °F - 53.1 °F 84% 29.93 in 10.0 mi South 8.1 mph - N/A   Clear
2:53 AM 59.0 °F - 55.0 °F 87% 29.88 in 10.0 mi South 10.4 mph - N/A   Clear
3:53 AM 60.1 °F - 55.9 °F 86% 29.86 in 10.0 mi South 9.2 mph - N/A   Partly Cloudy
4:53 AM 62.1 °F - 57.0 °F 84% 29.88 in 10.0 mi West 5.8 mph - N/A   Overcast
5:29 AM 60.8 °F - 57.2 °F 88% 29.91 in 2.5 mi Calm Calm - 0.08 in Rain Rain
5:32 AM 60.8 °F - 57.2 °F 88% 29.91 in 3.0 mi Calm Calm - 0.09 in Rain Light Rain
5:51 AM 60.8 °F - 59.0 °F 94% 29.91 in 10.0 mi SSW 5.8 mph - 0.09 in   Overcast
5:53 AM 61.0 °F - 59.0 °F 93% 29.90 in 10.0 mi SSW 5.8 mph - 0.09 in   Overcast
6:22 AM 60.8 °F - 59.0 °F 94% 29.90 in 4.0 mi SSW 9.2 mph - 0.02 in Rain Light Rain
6:53 AM 61.0 °F - 59.0 °F 93% 29.89 in 8.0 mi SSW 9.2 mph - 0.05 in Rain Light Rain
7:07 AM 62.6 °F - 59.0 °F 88% 29.90 in 10.0 mi SSW 9.2 mph - 0.00 in   Overcast
7:16 AM 62.6 °F - 59.0 °F 88% 29.90 in 10.0 mi SSW 11.5 mph - 0.00 in   Overcast
7:50 AM 62.6 °F - 59.0 °F 88% 29.92 in 1.5 mi SSW 6.9 mph - 0.00 in Rain Light Rain
7:51 AM 62.1 °F - 59.0 °F 90% 29.91 in 1.5 mi SSW 6.9 mph - 0.00 in Rain Light Rain
8:15 AM 55.4 °F - 53.6 °F 94% 29.95 in 1.5 mi West 21.9 mph 28.8 mph 0.01 in   Overcast
8:19 AM 55.4 °F - 53.6 °F 94% 29.95 in 4.0 mi West 20.7 mph 28.8 mph 0.01 in   Overcast
8:53 AM 53.1 °F - 50.0 °F 89% 29.97 in 3.0 mi West 15.0 mph 26.5 mph 0.01 in   Overcast
9:53 AM 46.0 °F 39.0 °F 44.1 °F 93% 30.05 in 3.0 mi WNW 17.3 mph 25.3 mph N/A   Overcast
10:32 AM 44.6 °F 37.2 °F 42.8 °F 93% 30.07 in 10.0 mi WNW 17.3 mph 24.2 mph N/A   Overcast
10:53 AM 46.0 °F 39.3 °F 41.0 °F 83% 30.07 in 10.0 mi WNW 16.1 mph 24.2 mph N/A   Overcast
11:53 AM 46.0 °F 39.0 °F 39.9 °F 79% 30.08 in 10.0 mi WNW 17.3 mph 21.9 mph N/A   Overcast
12:53 PM 45.0 °F 37.9 °F 37.9 °F 76% 30.08 in 10.0 mi WNW 16.1 mph - N/A   Overcast
1:29 PM 44.6 °F 38.4 °F 37.4 °F 76% 30.08 in 10.0 mi NW 12.7 mph 21.9 mph N/A   Overcast
1:53 PM 45.0 °F 38.9 °F 37.9 °F 76% 30.08 in 10.0 mi WNW 12.7 mph - N/A   Overcast
2:15 PM 44.6 °F 37.8 °F 37.4 °F 76% 30.09 in 10.0 mi NW 15.0 mph - N/A   Overcast
2:53 PM 42.1 °F 35.2 °F 36.0 °F 79% 30.10 in 10.0 mi WNW 12.7 mph - N/A   Overcast
3:53 PM 39.9 °F 32.5 °F 34.0 °F 79% 30.12 in 10.0 mi WNW 12.7 mph - N/A   Overcast
4:04 PM 39.2 °F 31.2 °F 33.8 °F 81% 30.13 in 10.0 mi WNW 13.8 mph - N/A   Overcast
4:53 PM 39.9 °F 31.8 °F 32.0 °F 73% 30.14 in 10.0 mi NNW 15.0 mph - N/A   Overcast
5:53 PM 39.0 °F 32.3 °F 30.9 °F 73% 30.16 in 10.0 mi NW 10.4 mph - N/A   Overcast
6:53 PM 37.9 °F 30.0 °F 28.9 °F 70% 30.17 in 10.0 mi NNW 12.7 mph - N/A   Overcast
7:53 PM 37.0 °F 29.3 °F 28.9 °F 73% 30.18 in 10.0 mi North 11.5 mph - N/A   Overcast
8:53 PM 36.0 °F 28.5 °F 28.0 °F 73% 30.21 in 10.0 mi NNW 10.4 mph - N/A   Overcast
9:53 PM 36.0 °F 28.5 °F 28.0 °F 73% 30.20 in 10.0 mi North 10.4 mph - N/A   Overcast
10:53 PM 35.1 °F 28.6 °F 28.0 °F 76% 30.20 in 10.0 mi NNW 8.1 mph - N/A   Overcast
11:53 PM 35.1 °F 26.9 °F 28.0 °F 76% 30.19 in 10.0 mi North 11.5 mph - N/A   Overcast